Terug naar catalogus

SIRIUS FM-6

ActiefCommunicatieGEO
NORAD 39360·PAYLOAD·🇺🇸 United States

Gelanceerd Oct 25, 2013 vanaf Baikonur Cosmodrome

Loading…

TLE

VersSource: Space-Track

Epoch: Sep 14, 2026, 13:15 UTC

1 39360U 13058A   26257.55209079 -.00000024  00000-0  00000-0 0  9994
2 39360   0.0241 241.8001 0000380  12.1268 181.9880  1.00272350 46967

Volg SIRIUS FM-6 in realtime met AllMySat

Download on the App Store